| time (UTC) | temp C | wind direction | speed KPH | gust KPH | rain 1hr cm | rain 24hr cm | rain mn cm | humidity % | barometer mb |
| 20260506103031 | 17 | 5 | 20.9 | 29.0 | 0.00 | 0.00 | 0.00 | 37 | 1010.7 |
| 20260506101517 | 17 | 5 | 20.9 | 24.1 | 0.00 | 0.00 | 0.00 | 41 | 1010.5 |
| 20260506100017 | 17 | 5 | 19.3 | 24.1 | 0.00 | 0.00 | 0.00 | 42 | 1010.5 |
| 20260506094517 | 17 | 5 | 17.7 | 22.5 | 0.00 | 0.00 | 0.00 | 46 | 1010.4 |
| 20260506093034 | 17 | 5 | 17.7 | 29.0 | 0.00 | 0.00 | 0.00 | 44 | 1010.2 |
| 20260506091528 | 17 | 5 | 19.3 | 24.1 | 0.00 | 0.00 | 0.00 | 45 | 1010.1 |
| 20260506090024 | 17 | 5 | 16.1 | 20.9 | 0.00 | 0.00 | 0.00 | 45 | 1010.2 |
| 20260506084523 | 17 | 5 | 14.5 | 17.7 | 0.00 | 0.00 | 0.00 | 45 | 1010.1 |
| 20260506083109 | 17 | 5 | 11.3 | 16.1 | 0.00 | 0.00 | 0.00 | 45 | 1009.9 |
| 20260506081558 | 18 | 5 | 11.3 | 17.7 | 0.00 | 0.00 | 0.00 | 44 | 1009.8 |
| 20260506073051 | 18 | 5 | 14.5 | 17.7 | 0.00 | 0.00 | 0.00 | 41 | 1009.4 |
| 20260506071549 | 19 | 5 | 17.7 | 20.9 | 0.00 | 0.00 | 0.00 | 39 | 1009.4 |
| 20260506061553 | 20 | 5 | 11.3 | 14.5 | 0.00 | 0.00 | 0.00 | 37 | 1008.9 |
| 20260506060110 | 20 | 5 | 8.0 | 14.5 | 0.00 | 0.00 | 0.00 | 35 | 1008.9 |
| 20260506044554 | 20 | 5 | 14.5 | 17.7 | 0.00 | 0.00 | 0.00 | 35 | 1008.8 |
| 20260506043049 | 20 | 5 | 14.5 | 20.9 | 0.00 | 0.00 | 0.00 | 36 | 1008.8 |
| 20260506041550 | 20 | 5 | 16.1 | 22.5 | 0.00 | 0.00 | 0.00 | 37 | 1008.6 |
| 20260506040047 | 20 | 5 | 19.3 | 25.7 | 0.00 | 0.00 | 0.00 | 38 | 1008.6 |
| 20260506034547 | 20 | 5 | 20.9 | 24.1 | 0.00 | 0.00 | 0.00 | 37 | 1008.4 |
| 20260506033050 | 20 | 5 | 19.3 | 20.9 | 0.00 | 0.00 | 0.00 | 36 | 1008.3 |
| 20260506031552 | 20 | 5 | 17.7 | 20.9 | 0.00 | 0.00 | 0.00 | 37 | 1008.3 |
| 20260506030048 | 20 | 5 | 19.3 | 22.5 | 0.00 | 0.00 | 0.00 | 37 | 1008.1 |
| 20260506024557 | 21 | 5 | 22.5 | 27.4 | 0.00 | 0.00 | 0.00 | 36 | 1007.9 |
| 20260506023047 | 21 | 5 | 20.9 | 24.1 | 0.00 | 0.00 | 0.00 | 37 | 1007.8 |
| 20260506021547 | 21 | 5 | 19.3 | 25.7 | 0.00 | 0.00 | 0.00 | 36 | 1007.8 |
| 20260506020047 | 21 | 5 | 19.3 | 27.4 | 0.00 | 0.00 | 0.00 | 35 | 1007.7 |
| 20260506014546 | 21 | 5 | 17.7 | 25.7 | 0.00 | 0.00 | 0.00 | 34 | 1007.6 |
| 20260506013043 | 22 | 5 | 22.5 | 33.8 | 0.00 | 0.00 | 0.00 | 33 | 1007.5 |
| 20260506011544 | 22 | 5 | 25.7 | 32.2 | 0.00 | 0.00 | 0.00 | 33 | 1007.3 |
| 20260506010043 | 22 | 5 | 27.4 | 37.0 | 0.00 | 0.00 | 0.00 | 32 | 1007.2 |
| 20260506004541 | 22 | 5 | 29.0 | 43.5 | 0.00 | 0.00 | 0.00 | 31 | 1007.2 |
| 20260506003038 | 23 | 5 | 27.4 | 41.8 | 0.00 | 0.00 | 0.00 | 30 | 1007.2 |
| 20260506001538 | 23 | 5 | 32.2 | 41.8 | 0.00 | 0.00 | 0.00 | 29 | 1007.2 |
| 20260506000032 | 23 | 5 | 33.8 | 49.9 | 0.00 | 0.00 | 0.00 | 29 | 1007.3 |
| 20260505234536 | 24 | 5 | 40.2 | 53.1 | 0.00 | 0.00 | 0.00 | 27 | 1007.2 |
| 20260505233036 | 24 | 5 | 30.6 | 53.1 | 0.00 | 0.00 | 0.00 | 28 | 1007.0 |
| 20260505231544 | 24 | 5 | 33.8 | 43.5 | 0.00 | 0.00 | 0.00 | 28 | 1007.0 |
| 20260505230048 | 24 | 5 | 37.0 | 56.3 | 0.00 | 0.00 | 0.00 | 27 | 1007.0 |
| 20260505224533 | 25 | 5 | 38.6 | 51.5 | 0.00 | 0.00 | 0.00 | 26 | 1007.1 |
| 20260505223033 | 23 | 5 | 37.0 | 48.3 | 0.00 | 0.00 | 0.00 | 26 | 1007.1 |
| 20260505221530 | 23 | 5 | 30.6 | 46.7 | 0.00 | 0.00 | 0.00 | 27 | 1007.2 |
| 20260505220032 | 23 | 5 | 40.2 | 49.9 | 0.00 | 0.00 | 0.00 | 27 | 1007.5 |
| 20260505214527 | 23 | 5 | 33.8 | 45.1 | 0.00 | 0.00 | 0.00 | 27 | 1007.5 |
| 20260505213040 | 22 | 5 | 32.2 | 46.7 | 0.00 | 0.00 | 0.00 | 27 | 1007.7 |
| 20260505211533 | 22 | 5 | 32.2 | 45.1 | 0.00 | 0.00 | 0.00 | 26 | 1008.0 |
| 20260505210034 | 22 | 5 | 33.8 | 48.3 | 0.00 | 0.00 | 0.00 | 26 | 1008.2 |
| 20260505204531 | 22 | 5 | 41.8 | 54.7 | 0.00 | 0.00 | 0.00 | 26 | 1008.3 |
| 20260505203029 | 22 | 5 | 33.8 | 51.5 | 0.00 | 0.00 | 0.00 | 27 | 1008.3 |
| 20260505201529 | 22 | 5 | 33.8 | 46.7 | 0.00 | 0.00 | 0.00 | 26 | 1008.3 |
| 20260505200029 | 22 | 5 | 27.4 | 45.1 | 0.00 | 0.00 | 0.00 | 28 | 1008.6 |
| 20260505194528 | 22 | 5 | 35.4 | 48.3 | 0.00 | 0.00 | 0.00 | 27 | 1008.5 |
| 20260505193020 | 22 | 5 | 32.2 | 46.7 | 0.00 | 0.00 | 0.00 | 28 | 1008.3 |
| 20260505191519 | 22 | 5 | 32.2 | 46.7 | 0.00 | 0.00 | 0.00 | 29 | 1008.4 |
| 20260505190018 | 22 | 5 | 41.8 | 54.7 | 0.00 | 0.00 | 0.00 | 29 | 1008.3 |
| 20260505184517 | 22 | 5 | 35.4 | 49.9 | 0.00 | 0.00 | 0.00 | 30 | 1008.5 |
| 20260505183030 | 22 | 5 | 38.6 | 51.5 | 0.00 | 0.00 | 0.00 | 30 | 1008.6 |
| 20260505181522 | 22 | 5 | 33.8 | 54.7 | 0.00 | 0.00 | 0.00 | 30 | 1008.6 |
| 20260505180040 | 22 | 5 | 37.0 | 46.7 | 0.00 | 0.00 | 0.00 | 30 | 1008.9 |
| 20260505174519 | 22 | 5 | 20.9 | 30.6 | 0.00 | 0.00 | 0.00 | 29 | 1009.0 |
| 20260505173025 | 22 | 5 | 24.1 | 32.2 | 0.00 | 0.00 | 0.00 | 29 | 1008.9 |
| 20260505171530 | 22 | 5 | 24.1 | 37.0 | 0.00 | 0.00 | 0.00 | 28 | 1008.9 |
| 20260505170033 | 22 | 5 | 24.1 | 33.8 | 0.00 | 0.00 | 0.00 | 29 | 1009.1 |
| 20260505164522 | 21 | 5 | 24.1 | 30.6 | 0.00 | 0.00 | 0.00 | 28 | 1008.9 |
| 20260505163029 | 21 | 5 | 22.5 | 35.4 | 0.00 | 0.00 | 0.00 | 28 | 1009.0 |
| 20260505161525 | 21 | 5 | 30.6 | 40.2 | 0.00 | 0.00 | 0.00 | 28 | 1008.8 |
| 20260505153015 | 21 | 5 | 25.7 | 30.6 | 0.00 | 0.00 | 0.00 | 28 | 1008.7 |
| 20260505151512 | 21 | 5 | 24.1 | 30.6 | 0.00 | 0.00 | 0.00 | 28 | 1008.9 |
| 20260505124546 | 20 | 5 | 17.7 | 25.7 | 0.00 | 0.00 | 0.00 | 27 | 1007.4 |
| 20260505123044 | 20 | 5 | 17.7 | 25.7 | 0.00 | 0.03 | 0.00 | 26 | 1007.2 |
| 20260505121541 | 21 | 5 | 19.3 | 29.0 | 0.00 | 0.03 | 0.00 | 26 | 1006.9 |
| 20260505120041 | 20 | 5 | 20.9 | 27.4 | 0.00 | 0.03 | 0.00 | 27 | 1006.8 |
| 20260505114541 | 19 | 5 | 19.3 | 25.7 | 0.00 | 0.03 | 0.00 | 28 | 1006.6 |
| 20260505113039 | 19 | 5 | 16.1 | 22.5 | 0.00 | 0.03 | 0.00 | 28 | 1006.8 |
| 20260505111533 | 20 | 5 | 17.7 | 22.5 | 0.00 | 0.03 | 0.00 | 28 | 1006.7 |